Change the Weather History Date:

Tuesday, April 16, 2013

  Actual Average Record
Temperature  
Mean Temperature 38 °F -  
Max Temperature 44 °F 55 °F 84 °F (2002)
Min Temperature 33 °F 35 °F 24 °F (2001)
Degree Days  
Heating Degree Days 27    
Moisture  
Dew Point 26 °F    
Average Humidity 64    
Maximum Humidity 73    
Minimum Humidity 49    
Precipitation  
Precipitation 0.00 in - - ()
Sea Level Pressure  
Sea Level Pressure 30.20 in    
Wind  
Wind Speed 9 mph (WNW)    
Max Wind Speed 15 mph    
Max Gust Speed 22 mph    
Visibility 10 miles    
Events      
Averages and records for this station are not official NWS values.
T = Trace of Precipitation, MM = Missing Value Source: NWS Daily Summary

Daily Weather History Graph

Daily Weather History Graph

Search for Another Location

Airport or City:

Trip Planner

Search our weather history database for the weather conditions in past years. The results will help you decide how hot, cold, wet, or windy it might be!

Date:

Astronomy

Apr. 16, 2013 Rise Set
Actual Time 6:26 AM CDT 8:00 PM CDT
Civil Twilight 5:55 AM CDT 8:31 PM CDT
Nautical Twilight 5:18 AM CDT 9:09 PM CDT
Astronomical Twilight 4:38 AM CDT 9:49 PM CDT
Moon 10:38 AM CDT (4/16) 1:05 AM CDT (4/16)
Length of Visible Light 14h 35m
Length of Day
13h 34m
Waxing Crescent, 33% of the Moon is Illuminated
Apr 16
Waxing Crescent
Apr 18
First Quarter
Apr 25
Full
May 2
Last Quarter
May 9
New

Hourly Weather History & Observations

Time (CDT) Temp. Windchill Dew Point Humidity Pressure Visibility Wind Dir Wind Speed Gust Speed Precip Events Conditions
12:53 AM 35.1 °F 27.4 °F 27.0 °F 72% 29.99 in 10.0 mi West 10.4 mph - N/A   Overcast
1:53 AM 34.0 °F 25.5 °F 26.1 °F 73% 30.01 in 10.0 mi West 11.5 mph - N/A   Overcast
2:53 AM 34.0 °F 24.6 °F 26.1 °F 73% 30.00 in 10.0 mi WNW 13.8 mph - N/A   Overcast
3:53 AM 33.1 °F 23.0 °F 25.0 °F 72% 30.02 in 10.0 mi West 15.0 mph 21.9 mph N/A   Overcast
4:53 AM 33.1 °F 24.9 °F 25.0 °F 72% 30.06 in 10.0 mi West 10.4 mph - N/A   Overcast
5:53 AM 33.1 °F 25.5 °F 25.0 °F 72% 30.09 in 10.0 mi WNW 9.2 mph - N/A   Overcast
6:53 AM 33.1 °F 23.4 °F 25.0 °F 72% 30.13 in 10.0 mi WNW 13.8 mph - N/A   Overcast
7:53 AM 33.1 °F 26.1 °F 25.0 °F 72% 30.14 in 10.0 mi WNW 8.1 mph - N/A   Overcast
8:53 AM 33.1 °F 24.4 °F 25.0 °F 72% 30.18 in 10.0 mi WNW 11.5 mph - N/A   Overcast
9:53 AM 34.0 °F 27.2 °F 25.0 °F 70% 30.21 in 10.0 mi West 8.1 mph - N/A   Overcast
10:53 AM 34.0 °F 27.2 °F 25.0 °F 70% 30.23 in 10.0 mi West 8.1 mph - N/A   Overcast
11:53 AM 36.0 °F 30.3 °F 25.0 °F 64% 30.25 in 10.0 mi West 6.9 mph - N/A   Mostly Cloudy
12:48 PM 37.4 °F 32.1 °F 26.6 °F 65% 30.22 in 10.0 mi WNW 6.9 mph - N/A   Scattered Clouds
12:53 PM 37.0 °F 31.0 °F 26.1 °F 65% 30.25 in 10.0 mi NW 8.1 mph - N/A   Scattered Clouds
1:53 PM 39.0 °F 35.7 °F 25.0 °F 57% 30.26 in 10.0 mi NNW 4.6 mph - N/A   Clear
2:53 PM 41.0 °F 35.2 °F 26.1 °F 55% 30.26 in 10.0 mi NNW 9.2 mph - N/A   Partly Cloudy
3:53 PM 42.1 °F 38.4 °F 26.1 °F 53% 30.27 in 10.0 mi West 5.8 mph - N/A   Clear
4:53 PM 43.0 °F 38.8 °F 26.1 °F 51% 30.26 in 10.0 mi Variable 6.9 mph - N/A   Partly Cloudy
5:53 PM 43.0 °F - 25.0 °F 49% 30.27 in 10.0 mi Calm Calm - N/A   Clear
6:53 PM 43.0 °F - 25.0 °F 49% 30.27 in 10.0 mi Calm Calm - N/A   Clear
7:53 PM 42.1 °F - 24.1 °F 49% 30.28 in 10.0 mi Calm Calm - N/A   Clear
8:53 PM 37.9 °F 34.4 °F 26.1 °F 62% 30.31 in 10.0 mi NW 4.6 mph - N/A   Clear
9:53 PM 37.0 °F - 25.0 °F 62% 30.33 in 10.0 mi Calm Calm - N/A   Clear
10:53 PM 37.0 °F - 26.1 °F 65% 30.33 in 10.0 mi Calm Calm - N/A   Clear
11:53 PM 37.0 °F - 26.1 °F 65% 30.33 in 10.0 mi Calm Calm - N/A   Clear